Weather History for Molokai, HI

Change the Weather History Date:

Tuesday, January 10, 2012

  Actual Average Record
Temperature  
Mean Temperature 73 °F -  
Max Temperature 78 °F 77 °F 84 °F (2007)
Min Temperature 68 °F 63 °F 55 °F (2003)
Cooling Degree Days 8    
Growing Degree Days 23 (Base 50)    
Moisture  
Dew Point 63 °F    
Average Humidity 73    
Maximum Humidity 81    
Minimum Humidity 60    
Precipitation  
Precipitation 0.00 in - - ()
Sea Level Pressure  
Sea Level Pressure 30.08 in    
Wind  
Wind Speed 9 mph (NE)    
Max Wind Speed 14 mph    
Max Gust Speed 24 mph    
Visibility 10 miles    
Events      
Averages and records for this station are not official NWS values.
T = Trace of Precipitation, MM = Missing Value Source: NWS Daily Summary

Daily Weather History Graph

Daily Weather History Graph

Search for Another Location

Airport:

Trip Planner

Search our weather history database for the weather conditions in past years. The results will help you decide how hot, cold, wet, or windy it might be!

Date:

Astronomy

Jan. 10, 2012 Rise Set
Actual Time 7:07 AM HST 6:04 PM HST
Civil Twilight 6:43 AM HST 6:28 PM HST
Nautical Twilight 6:16 AM HST 6:55 PM HST
Astronomical Twilight 5:49 AM HST 7:22 PM HST
Moon 7:50 PM HST (1/10) 8:07 AM HST (1/10)
Length of Visible Light 11h 44m
Length of Day
10h 56m
Full, 97% of the Moon is Illuminated
Jan 10
Full
Jan 15
Last Quarter
Jan 22
New
Jan 30
First Quarter
Feb 7
Full

Hourly Weather History & Observations

Time (HST) Temp. Dew Point Humidity Pressure Visibility Wind Dir Wind Speed Gust Speed Precip Events Conditions
12:54 AM 70.0 °F 63.0 °F 78% 30.12 in 10.0 mi NNE 11.5 mph - 0.00 in   Partly Cloudy
1:54 AM 70.0 °F 62.1 °F 76% 30.10 in 10.0 mi NE 10.4 mph - N/A   Clear
2:54 AM 70.0 °F 63.0 °F 78% 30.09 in 10.0 mi NE 9.2 mph - N/A   Clear
3:54 AM 69.1 °F 62.1 °F 78% 30.08 in 10.0 mi NNE 6.9 mph - N/A   Clear
4:54 AM 69.1 °F 63.0 °F 81% 30.07 in 10.0 mi NE 8.1 mph - N/A   Partly Cloudy
5:54 AM 68.0 °F 61.0 °F 78% 30.08 in 10.0 mi NNE 6.9 mph - N/A   Partly Cloudy
6:54 AM 69.1 °F 61.0 °F 75% 30.09 in 10.0 mi NE 4.6 mph - N/A   Partly Cloudy
7:54 AM 70.0 °F 62.1 °F 76% 30.11 in 10.0 mi NE 6.9 mph - N/A   Scattered Clouds
8:54 AM 73.9 °F 64.0 °F 71% 30.11 in 10.0 mi ENE 8.1 mph - N/A   Scattered Clouds
9:54 AM 75.9 °F 64.9 °F 69% 30.12 in 10.0 mi NNE 10.4 mph 20.7 mph N/A   Scattered Clouds
10:54 AM 75.9 °F 64.0 °F 67% 30.10 in 10.0 mi NNE 13.8 mph 23.0 mph 0.00 in   Scattered Clouds
11:54 AM 73.9 °F 63.0 °F 68% 30.08 in 10.0 mi NE 11.5 mph 24.2 mph 0.00 in   Overcast
12:54 PM 78.1 °F 63.0 °F 60% 30.04 in 10.0 mi North 10.4 mph - N/A   Scattered Clouds
1:54 PM 73.0 °F 64.9 °F 76% 30.03 in 9.0 mi North 4.6 mph - N/A   Overcast
2:54 PM 73.9 °F 64.9 °F 73% 30.02 in 10.0 mi NNE 6.9 mph - 0.00 in   Scattered Clouds
3:54 PM 77.0 °F 64.0 °F 64% 30.03 in 10.0 mi NE 10.4 mph - N/A   Overcast
4:54 PM 73.9 °F 63.0 °F 68% 30.03 in 10.0 mi NNE 8.1 mph - N/A   Overcast
5:54 PM 73.0 °F 63.0 °F 71% 30.06 in 10.0 mi NNE 8.1 mph - N/A   Mostly Cloudy
6:54 PM 71.1 °F 63.0 °F 75% 30.06 in 10.0 mi North 9.2 mph - N/A   Mostly Cloudy
7:54 PM 71.1 °F 62.1 °F 73% 30.08 in 10.0 mi NE 11.5 mph 17.3 mph N/A   Clear
8:54 PM 71.1 °F 61.0 °F 70% 30.09 in 10.0 mi NNE 8.1 mph - N/A   Clear
9:54 PM 70.0 °F 62.1 °F 76% 30.10 in 10.0 mi NE 6.9 mph - N/A   Clear
10:54 PM 70.0 °F 62.1 °F 76% 30.09 in 10.0 mi NE 8.1 mph - N/A   Clear
11:54 PM 70.0 °F 63.0 °F 78% 30.08 in 10.0 mi NNE 4.6 mph - N/A   Clear